"Time","Value","Approval","myLocation"
"2023-05-06 00:00",43.7450270379934,"Approved","OW428"
"2023-05-06 01:00",43.7463259313906,"Approved","OW428"
"2023-05-06 02:00",43.7442248247879,"Approved","OW428"
"2023-05-06 03:00",43.7421237181852,"Approved","OW428"
"2023-05-06 04:00",43.7396226115824,"Approved","OW428"
"2023-05-06 05:00",43.7403215049797,"Approved","OW428"
"2023-05-06 06:00",43.738020398377,"Approved","OW428"
"2023-05-06 07:00",43.7403192917743,"Approved","OW428"
"2023-05-06 08:00",43.7429181851715,"Approved","OW428"
"2023-05-06 09:00",43.7473170785688,"Approved","OW428"
"2023-05-06 10:00",43.7519159719661,"Approved","OW428"
"2023-05-06 11:00",43.7569148653633,"Approved","OW428"
"2023-05-06 12:00",43.7607137587606,"Approved","OW428"
"2023-05-06 13:00",43.7609126521579,"Approved","OW428"
"2023-05-06 14:00",43.7601115455551,"Approved","OW428"
"2023-05-06 15:00",43.7575104389524,"Approved","OW428"
"2023-05-06 16:00",43.7553093323497,"Approved","OW428"
"2023-05-06 17:00",43.752608225747,"Approved","OW428"
"2023-05-06 18:00",43.7505071191442,"Approved","OW428"
"2023-05-06 19:00",43.7492060125415,"Approved","OW428"
"2023-05-06 20:00",43.7489049059388,"Approved","OW428"
"2023-05-06 21:00",43.751403799336,"Approved","OW428"
"2023-05-06 22:00",43.7519026927333,"Approved","OW428"
"2023-05-06 23:00",43.7549015861306,"Approved","OW428"
"2023-05-07 00:00",43.7560004795278,"Approved","OW428"
"2023-05-07 01:00",43.7565993729251,"Approved","OW428"
"2023-05-07 02:00",43.7561982663224,"Approved","OW428"
"2023-05-07 03:00",43.7553971597197,"Approved","OW428"
"2023-05-07 04:00",43.7540960531169,"Approved","OW428"
"2023-05-07 05:00",43.7513949465142,"Approved","OW428"
"2023-05-07 06:00",43.7503938399115,"Approved","OW428"
"2023-05-07 07:00",43.7522927333087,"Approved","OW428"
"2023-05-07 08:00",43.754091626706,"Approved","OW428"
"2023-05-07 09:00",43.7585905201033,"Approved","OW428"
"2023-05-07 10:00",43.7628894135006,"Approved","OW428"
"2023-05-07 11:00",43.7670883068978,"Approved","OW428"
"2023-05-07 12:00",43.7720872002951,"Approved","OW428"
"2023-05-07 13:00",43.7724860936924,"Approved","OW428"
"2023-05-07 14:00",43.7736849870896,"Approved","OW428"
"2023-05-07 15:00",43.7724838804869,"Approved","OW428"
"2023-05-07 16:00",43.7701827738842,"Approved","OW428"
"2023-05-07 17:00",43.7675816672814,"Approved","OW428"
"2023-05-07 18:00",43.7639805606787,"Approved","OW428"
"2023-05-07 19:00",43.762479454076,"Approved","OW428"
"2023-05-07 20:00",43.7613783474733,"Approved","OW428"
"2023-05-07 21:00",43.7614772408705,"Approved","OW428"
"2023-05-07 22:00",43.7618761342678,"Approved","OW428"
"2023-05-07 23:00",43.7627750276651,"Approved","OW428"
"2023-05-08 00:00",43.7638739210623,"Approved","OW428"
"2023-05-08 01:00",43.7646728144596,"Approved","OW428"
"2023-05-08 02:00",43.7639717078569,"Approved","OW428"
"2023-05-08 03:00",43.7626706012542,"Approved","OW428"
"2023-05-08 04:00",43.7603694946514,"Approved","OW428"
"2023-05-08 05:00",43.7592683880487,"Approved","OW428"
"2023-05-08 06:00",43.758167281446,"Approved","OW428"
"2023-05-08 07:00",43.7585661748432,"Approved","OW428"
"2023-05-08 08:00",43.7602650682405,"Approved","OW428"
"2023-05-08 09:00",43.7612639616378,"Approved","OW428"
"2023-05-08 10:00",43.765262855035,"Approved","OW428"
"2023-05-08 11:00",43.7684617484323,"Approved","OW428"
"2023-05-08 12:00",43.7724606418296,"Approved","OW428"
"2023-05-08 13:00",43.7750595352269,"Approved","OW428"
"2023-05-08 14:00",43.7770584286241,"Approved","OW428"
"2023-05-08 15:00",43.7772573220214,"Approved","OW428"
"2023-05-08 16:00",43.7753562154187,"Approved","OW428"
"2023-05-08 17:00",43.7731551088159,"Approved","OW428"
"2023-05-08 18:00",43.7702540022132,"Approved","OW428"
"2023-05-08 19:00",43.7674528956105,"Approved","OW428"
"2023-05-08 20:00",43.7671517890077,"Approved","OW428"
"2023-05-08 21:00",43.766550682405,"Approved","OW428"
"2023-05-08 22:00",43.7672495758023,"Approved","OW428"
"2023-05-08 23:00",43.7677484691996,"Approved","OW428"
"2023-05-09 00:00",43.7693473625968,"Approved","OW428"
"2023-05-09 01:00",43.7703462559941,"Approved","OW428"
"2023-05-09 02:00",43.7723451493914,"Approved","OW428"
"2023-05-09 03:00",43.7733440427886,"Approved","OW428"
"2023-05-09 04:00",43.7726429361859,"Approved","OW428"
"2023-05-09 05:00",43.7720418295832,"Approved","OW428"
"2023-05-09 06:00",43.7714407229805,"Approved","OW428"
"2023-05-09 07:00",43.7715396163777,"Approved","OW428"
"2023-05-09 08:00",43.772338509775,"Approved","OW428"
"2023-05-09 09:00",43.7736374031723,"Approved","OW428"
"2023-05-09 10:00",43.7768362965695,"Approved","OW428"
"2023-05-09 11:00",43.7816351899668,"Approved","OW428"
"2023-05-09 12:00",43.7860340833641,"Approved","OW428"
"2023-05-09 13:00",43.7882329767613,"Approved","OW428"
"2023-05-09 14:00",43.7903318701586,"Approved","OW428"
"2023-05-09 15:00",43.7911307635559,"Approved","OW428"
"2023-05-09 16:00",43.7904296569532,"Approved","OW428"
"2023-05-09 17:00",43.7879285503504,"Approved","OW428"
"2023-05-09 18:00",43.7865274437477,"Approved","OW428"
"2023-05-09 19:00",43.784426337145,"Approved","OW428"
"2023-05-09 20:00",43.7821252305422,"Approved","OW428"
"2023-05-09 21:00",43.7819241239395,"Approved","OW428"
"2023-05-09 22:00",43.7806230173368,"Approved","OW428"
"2023-05-09 23:00",43.779521910734,"Approved","OW428"
"2023-05-10 00:00",43.7800208041313,"Approved","OW428"
"2023-05-10 01:00",43.7803196975286,"Approved","OW428"
"2023-05-10 02:00",43.7809185909259,"Approved","OW428"
"2023-05-10 03:00",43.7803174843231,"Approved","OW428"
"2023-05-10 04:00",43.7805163777204,"Approved","OW428"
"2023-05-10 05:00",43.7784152711177,"Approved","OW428"
"2023-05-10 06:00",43.7778141645149,"Approved","OW428"
"2023-05-10 07:00",43.7778130579122,"Approved","OW428"
"2023-05-10 08:00",43.7771119513095,"Approved","OW428"
"2023-05-10 09:00",43.7774108447068,"Approved","OW428"
"2023-05-10 10:00",43.779409738104,"Approved","OW428"
"2023-05-10 11:00",43.7839086315013,"Approved","OW428"
"2023-05-10 12:00",43.7888075248986,"Approved","OW428"
"2023-05-10 13:00",43.7902064182958,"Approved","OW428"
"2023-05-10 14:00",43.7915053116931,"Approved","OW428"
"2023-05-10 15:00",43.7930042050904,"Approved","OW428"
"2023-05-10 16:00",43.7936030984876,"Approved","OW428"
"2023-05-10 17:00",43.7927019918849,"Approved","OW428"
"2023-05-10 18:00",43.7918008852822,"Approved","OW428"
"2023-05-10 19:00",43.7918997786795,"Approved","OW428"
"2023-05-10 20:00",43.7911986720767,"Approved","OW428"
"2023-05-10 21:00",43.790297565474,"Approved","OW428"
"2023-05-10 22:00",43.7889964588713,"Approved","OW428"
"2023-05-10 23:00",43.7885953522685,"Approved","OW428"
"2023-05-11 00:00",43.7879942456658,"Approved","OW428"
"2023-05-11 01:00",43.7885931390631,"Approved","OW428"
"2023-05-11 02:00",43.7886920324603,"Approved","OW428"
"2023-05-11 03:00",43.7899909258576,"Approved","OW428"
"2023-05-11 04:00",43.7903898192549,"Approved","OW428"
"2023-05-11 05:00",43.7900887126522,"Approved","OW428"
"2023-05-11 06:00",43.7906876060494,"Approved","OW428"
"2023-05-11 07:00",43.7910864994467,"Approved","OW428"
"2023-05-11 08:00",43.791185392844,"Approved","OW428"
"2023-05-11 09:00",43.7917842862412,"Approved","OW428"
"2023-05-11 10:00",43.7928831796385,"Approved","OW428"
"2023-05-11 11:00",43.7955820730358,"Approved","OW428"
"2023-05-11 12:00",43.798080966433,"Approved","OW428"
"2023-05-11 13:00",43.7998798598303,"Approved","OW428"
"2023-05-11 14:00",43.8013787532276,"Approved","OW428"
"2023-05-11 15:00",43.8036776466249,"Approved","OW428"
"2023-05-11 16:00",43.8045765400221,"Approved","OW428"
"2023-05-11 17:00",43.8057754334194,"Approved","OW428"
"2023-05-11 18:00",43.8056743268167,"Approved","OW428"
"2023-05-11 19:00",43.8065732202139,"Approved","OW428"
"2023-05-11 20:00",43.8050721136112,"Approved","OW428"
"2023-05-11 21:00",43.8051710070085,"Approved","OW428"
"2023-05-11 22:00",43.8033699004058,"Approved","OW428"
"2023-05-11 23:00",43.801668793803,"Approved","OW428"
"2023-05-12 00:00",43.8009676872003,"Approved","OW428"
"2023-05-12 01:00",43.8007665805976,"Approved","OW428"
"2023-05-12 02:00",43.8011654739948,"Approved","OW428"
"2023-05-12 03:00",43.8017643673921,"Approved","OW428"
"2023-05-12 04:00",43.8023632607894,"Approved","OW428"
"2023-05-12 05:00",43.8035621541866,"Approved","OW428"
"2023-05-12 06:00",43.8045610475839,"Approved","OW428"
"2023-05-12 07:00",43.8063599409812,"Approved","OW428"
"2023-05-12 08:00",43.8060588343785,"Approved","OW428"
"2023-05-12 09:00",43.8079577277757,"Approved","OW428"
"2023-05-12 10:00",43.808156621173,"Approved","OW428"
"2023-05-12 11:00",43.8116555145703,"Approved","OW428"
"2023-05-12 12:00",43.8137544079675,"Approved","OW428"
"2023-05-12 13:00",43.8138533013648,"Approved","OW428"
"2023-05-12 14:00",43.8150521947621,"Approved","OW428"
"2023-05-12 15:00",43.8166510881593,"Approved","OW428"
"2023-05-12 16:00",43.8183499815566,"Approved","OW428"
"2023-05-12 17:00",43.8206488749539,"Approved","OW428"
"2023-05-12 18:00",43.8220477683512,"Approved","OW428"
"2023-05-12 19:00",43.8222466617484,"Approved","OW428"
"2023-05-12 20:00",43.8230455551457,"Approved","OW428"
"2023-05-12 21:00",43.822644448543,"Approved","OW428"
"2023-05-12 22:00",43.8214433419402,"Approved","OW428"
"2023-05-12 23:00",43.8196422353375,"Approved","OW428"
"2023-05-13 00:00",43.8175411287348,"Approved","OW428"
"2023-05-13 01:00",43.8168400221321,"Approved","OW428"
"2023-05-13 02:00",43.8158389155293,"Approved","OW428"
"2023-05-13 03:00",43.8158378089266,"Approved","OW428"
"2023-05-13 04:00",43.8175367023239,"Approved","OW428"
"2023-05-13 05:00",43.8194355957211,"Approved","OW428"
"2023-05-13 06:00",43.8205344891184,"Approved","OW428"
"2023-05-13 07:00",43.8213333825157,"Approved","OW428"
"2023-05-13 08:00",43.8228322759129,"Approved","OW428"
"2023-05-13 09:00",43.8243311693102,"Approved","OW428"
"2023-05-13 10:00",43.8247300627075,"Approved","OW428"
"2023-05-13 11:00",43.8263289561048,"Approved","OW428"
"2023-05-13 12:00",43.826727849502,"Approved","OW428"
"2023-05-13 13:00",43.8252267428993,"Approved","OW428"
"2023-05-13 14:00",43.8247256362966,"Approved","OW428"
"2023-05-13 15:00",43.8252245296938,"Approved","OW428"
"2023-05-13 16:00",43.8260234230911,"Approved","OW428"
"2023-05-13 17:00",43.8275223164884,"Approved","OW428"
"2023-05-13 18:00",43.8288212098857,"Approved","OW428"
"2023-05-13 19:00",43.8294201032829,"Approved","OW428"
"2023-05-13 20:00",43.8303189966802,"Approved","OW428"
"2023-05-13 21:00",43.8302178900775,"Approved","OW428"
"2023-05-13 22:00",43.8288167834747,"Approved","OW428"
"2023-05-13 23:00",43.825915676872,"Approved","OW428"
"2023-05-14 00:00",43.8237145702693,"Approved","OW428"
"2023-05-14 01:00",43.8214134636665,"Approved","OW428"
"2023-05-14 02:00",43.8210123570638,"Approved","OW428"
"2023-05-14 03:00",43.8186112504611,"Approved","OW428"
"2023-05-14 04:00",43.8186101438584,"Approved","OW428"
"2023-05-14 05:00",43.8191090372556,"Approved","OW428"
"2023-05-14 06:00",43.8208079306529,"Approved","OW428"
"2023-05-14 07:00",43.8228068240502,"Approved","OW428"
"2023-05-14 08:00",43.8238057174474,"Approved","OW428"
"2023-05-14 09:00",43.8242046108447,"Approved","OW428"
"2023-05-14 10:00",43.824803504242,"Approved","OW428"
"2023-05-14 11:00",43.8262023976392,"Approved","OW428"
"2023-05-14 12:00",43.8249012910365,"Approved","OW428"
"2023-05-14 13:00",43.8250001844338,"Approved","OW428"
"2023-05-14 14:00",43.8208990778311,"Approved","OW428"
"2023-05-14 15:00",43.8202979712283,"Approved","OW428"
"2023-05-14 16:00",43.8207968646256,"Approved","OW428"
"2023-05-14 17:00",43.8216957580229,"Approved","OW428"
"2023-05-14 18:00",43.8221946514201,"Approved","OW428"
"2023-05-14 19:00",43.8250935448174,"Approved","OW428"
"2023-05-14 20:00",43.8275924382147,"Approved","OW428"
"2023-05-14 21:00",43.828891331612,"Approved","OW428"
"2023-05-14 22:00",43.8283902250092,"Approved","OW428"
"2023-05-14 23:00",43.8262891184065,"Approved","OW428"
"2023-05-15 00:00",43.8238880118038,"Approved","OW428"
"2023-05-15 01:00",43.820186905201,"Approved","OW428"
"2023-05-15 02:00",43.8181857985983,"Approved","OW428"
"2023-05-15 03:00",43.8170846919956,"Approved","OW428"
"2023-05-15 04:00",43.8165835853928,"Approved","OW428"
"2023-05-15 05:00",43.8183824787901,"Approved","OW428"
"2023-05-15 06:00",43.8213813721874,"Approved","OW428"
"2023-05-15 07:00",43.8228802655847,"Approved","OW428"
"2023-05-15 08:00",43.8251791589819,"Approved","OW428"
"2023-05-15 09:00",43.8274780523792,"Approved","OW428"
"2023-05-15 10:00",43.8290769457765,"Approved","OW428"
"2023-05-15 11:00",43.8316758391737,"Approved","OW428"
"2023-05-15 12:00",43.831074732571,"Approved","OW428"
"2023-05-15 13:00",43.8282736259683,"Approved","OW428"
"2023-05-15 14:00",43.8261725193655,"Approved","OW428"
"2023-05-15 15:00",43.8238714127628,"Approved","OW428"
"2023-05-15 16:00",43.8233703061601,"Approved","OW428"
"2023-05-15 17:00",43.8240691995574,"Approved","OW428"
"2023-05-15 18:00",43.8248680929546,"Approved","OW428"
"2023-05-15 19:00",43.8285669863519,"Approved","OW428"
"2023-05-15 20:00",43.8319658797492,"Approved","OW428"
"2023-05-15 21:00",43.8356647731464,"Approved","OW428"
"2023-05-15 22:00",43.8361636665437,"Approved","OW428"
"2023-05-15 23:00",43.835362559941,"Approved","OW428"
"2023-05-16 00:00",43.8342614533383,"Approved","OW428"
"2023-05-16 01:00",43.8332603467355,"Approved","OW428"
"2023-05-16 02:00",43.8303592401328,"Approved","OW428"
"2023-05-16 03:00",43.8306581335301,"Approved","OW428"
"2023-05-16 04:00",43.8303570269273,"Approved","OW428"
"2023-05-16 05:00",43.8315559203246,"Approved","OW428"
"2023-05-16 06:00",43.8349548137219,"Approved","OW428"
"2023-05-16 07:00",43.8382537071191,"Approved","OW428"
"2023-05-16 08:00",43.8420526005164,"Approved","OW428"
"2023-05-16 09:00",43.8446514939137,"Approved","OW428"
"2023-05-16 10:00",43.847850387311,"Approved","OW428"
"2023-05-16 11:00",43.8485492807082,"Approved","OW428"
"2023-05-16 12:00",43.8476481741055,"Approved","OW428"
"2023-05-16 13:00",43.8450470675028,"Approved","OW428"
"2023-05-16 14:00",43.8399459609,"Approved","OW428"
"2023-05-16 15:00",43.8369448542973,"Approved","OW428"
"2023-05-16 16:00",43.8347437476946,"Approved","OW428"
"2023-05-16 17:00",43.8343426410919,"Approved","OW428"
"2023-05-16 18:00",43.8350415344891,"Approved","OW428"
"2023-05-16 19:00",43.8370404278864,"Approved","OW428"
"2023-05-16 20:00",43.8405393212837,"Approved","OW428"
"2023-05-16 21:00",43.8438382146809,"Approved","OW428"
"2023-05-16 22:00",43.8458371080782,"Approved","OW428"
"2023-05-16 23:00",43.8450360014755,"Approved","OW428"
"2023-05-17 00:00",43.8425348948727,"Approved","OW428"
"2023-05-17 01:00",43.84003378827,"Approved","OW428"
"2023-05-17 02:00",43.8396326816673,"Approved","OW428"
"2023-05-17 03:00",43.8365315750646,"Approved","OW428"
"2023-05-17 04:00",43.8357304684618,"Approved","OW428"
"2023-05-17 05:00",43.8348293618591,"Approved","OW428"
"2023-05-17 06:00",43.8367282552564,"Approved","OW428"
"2023-05-17 07:00",43.8394271486536,"Approved","OW428"
"2023-05-17 08:00",43.8426260420509,"Approved","OW428"
"2023-05-17 09:00",43.8462249354482,"Approved","OW428"
"2023-05-17 10:00",43.8482238288454,"Approved","OW428"
"2023-05-17 11:00",43.8515227222427,"Approved","OW428"
"2023-05-17 12:00",43.85072161564,"Approved","OW428"
"2023-05-17 13:00",43.8475205090373,"Approved","OW428"
"2023-05-17 14:00",43.8439194024345,"Approved","OW428"
"2023-05-17 15:00",43.8395182958318,"Approved","OW428"
"2023-05-17 16:00",43.8366171892291,"Approved","OW428"
"2023-05-17 17:00",43.8340160826263,"Approved","OW428"
"2023-05-17 18:00",43.8328149760236,"Approved","OW428"
"2023-05-17 19:00",43.8346138694209,"Approved","OW428"
"2023-05-17 20:00",43.8365127628182,"Approved","OW428"
"2023-05-17 21:00",43.8391116562154,"Approved","OW428"
"2023-05-17 22:00",43.8404105496127,"Approved","OW428"
"2023-05-17 23:00",43.84260944301,"Approved","OW428"
"2023-05-18 00:00",43.8421083364072,"Approved","OW428"
"2023-05-18 01:00",43.8407072298045,"Approved","OW428"
"2023-05-18 02:00",43.8386061232018,"Approved","OW428"
"2023-05-18 03:00",43.836605016599,"Approved","OW428"
"2023-05-18 04:00",43.8354039099963,"Approved","OW428"
"2023-05-18 05:00",43.8346028033936,"Approved","OW428"
"2023-05-18 06:00",43.8361016967909,"Approved","OW428"
"2023-05-18 07:00",43.8400005901881,"Approved","OW428"
"2023-05-18 08:00",43.8436994835854,"Approved","OW428"
"2023-05-18 09:00",43.8480983769827,"Approved","OW428"
"2023-05-18 10:00",43.8527972703799,"Approved","OW428"
"2023-05-18 11:00",43.8572961637772,"Approved","OW428"
"2023-05-18 12:00",43.8590950571745,"Approved","OW428"
"2023-05-18 13:00",43.8585939505717,"Approved","OW428"
"2023-05-18 14:00",43.857392843969,"Approved","OW428"
"2023-05-18 15:00",43.8541917373663,"Approved","OW428"
"2023-05-18 16:00",43.8515906307636,"Approved","OW428"
"2023-05-18 17:00",43.8500895241608,"Approved","OW428"
"2023-05-18 18:00",43.8482884175581,"Approved","OW428"
"2023-05-18 19:00",43.8499873109554,"Approved","OW428"
"2023-05-18 20:00",43.8509862043526,"Approved","OW428"
"2023-05-18 21:00",43.8566850977499,"Approved","OW428"
"2023-05-18 22:00",43.8598839911472,"Approved","OW428"
"2023-05-18 23:00",43.8611828845444,"Approved","OW428"
"2023-05-19 00:00",43.8614817779417,"Approved","OW428"
"2023-05-19 01:00",43.860780671339,"Approved","OW428"
"2023-05-19 02:00",43.8592795647363,"Approved","OW428"
"2023-05-19 03:00",43.8566784581335,"Approved","OW428"
"2023-05-19 04:00",43.8555773515308,"Approved","OW428"
"2023-05-19 05:00",43.8553762449281,"Approved","OW428"
"2023-05-19 06:00",43.8570751383253,"Approved","OW428"
"2023-05-19 07:00",43.8595740317226,"Approved","OW428"
"2023-05-19 08:00",43.8638729251199,"Approved","OW428"
"2023-05-19 09:00",43.8676718185172,"Approved","OW428"
"2023-05-19 10:00",43.8720707119144,"Approved","OW428"
"2023-05-19 11:00",43.8768696053117,"Approved","OW428"
"2023-05-19 12:00",43.880268498709,"Approved","OW428"
"2023-05-19 13:00",43.8793673921062,"Approved","OW428"
"2023-05-19 14:00",43.8766662855035,"Approved","OW428"
"2023-05-19 15:00",43.8733651789008,"Approved","OW428"
"2023-05-19 16:00",43.869364072298,"Approved","OW428"
"2023-05-19 17:00",43.8660629656953,"Approved","OW428"
"2023-05-19 18:00",43.8640618590926,"Approved","OW428"
"2023-05-19 19:00",43.8629607524899,"Approved","OW428"
"2023-05-19 20:00",43.8638596458871,"Approved","OW428"
"2023-05-19 21:00",43.8671585392844,"Approved","OW428"
"2023-05-19 22:00",43.8695574326817,"Approved","OW428"
"2023-05-19 23:00",43.8712563260789,"Approved","OW428"
"2023-05-20 00:00",43.8723552194762,"Approved","OW428"
"2023-05-20 01:00",43.8726541128735,"Approved","OW428"
"2023-05-20 02:00",43.8720530062707,"Approved","OW428"
"2023-05-20 03:00",43.869751899668,"Approved","OW428"
"2023-05-20 04:00",43.8687507930653,"Approved","OW428"
"2023-05-20 05:00",43.8675496864626,"Approved","OW428"
"2023-05-20 06:00",43.8674485798598,"Approved","OW428"
"2023-05-20 07:00",43.8697474732571,"Approved","OW428"
"2023-05-20 08:00",43.8722463666544,"Approved","OW428"
"2023-05-20 09:00",43.8757452600516,"Approved","OW428"
"2023-05-20 10:00",43.8806441534489,"Approved","OW428"
"2023-05-20 11:00",43.8853430468462,"Approved","OW428"
"2023-05-20 12:00",43.8886419402435,"Approved","OW428"
"2023-05-20 13:00",43.8887408336407,"Approved","OW428"
"2023-05-20 14:00",43.886839727038,"Approved","OW428"
"2023-05-20 15:00",43.8846386204353,"Approved","OW428"
"2023-05-20 16:00",43.8815375138325,"Approved","OW428"
"2023-05-20 17:00",43.8788364072298,"Approved","OW428"
"2023-05-20 18:00",43.8764353006271,"Approved","OW428"
"2023-05-20 19:00",43.8760341940243,"Approved","OW428"
"2023-05-20 20:00",43.8766330874216,"Approved","OW428"
"2023-05-20 21:00",43.8777319808189,"Approved","OW428"
"2023-05-20 22:00",43.8804308742162,"Approved","OW428"
"2023-05-20 23:00",43.8810297676134,"Approved","OW428"
"2023-05-21 00:00",43.8824286610107,"Approved","OW428"
"2023-05-21 01:00",43.883627554408,"Approved","OW428"
"2023-05-21 02:00",43.8825264478052,"Approved","OW428"
"2023-05-21 03:00",43.8809253412025,"Approved","OW428"
"2023-05-21 04:00",43.8796242345998,"Approved","OW428"
"2023-05-21 05:00",43.878223127997,"Approved","OW428"
"2023-05-21 06:00",43.8767220213943,"Approved","OW428"
"2023-05-21 07:00",43.8783209147916,"Approved","OW428"
"2023-05-21 08:00",43.8813198081889,"Approved","OW428"
"2023-05-21 09:00",43.8847187015861,"Approved","OW428"
"2023-05-21 10:00",43.8878175949834,"Approved","OW428"
"2023-05-21 11:00",43.8933164883807,"Approved","OW428"
"2023-05-21 12:00",43.8969153817779,"Approved","OW428"
"2023-05-21 13:00",43.8972142751752,"Approved","OW428"
"2023-05-21 14:00",43.8987131685725,"Approved","OW428"
"2023-05-21 15:00",43.8984120619698,"Approved","OW428"
"2023-05-21 16:00",43.895910955367,"Approved","OW428"
"2023-05-21 17:00",43.8921098487643,"Approved","OW428"
"2023-05-21 18:00",43.8891087421616,"Approved","OW428"
"2023-05-21 19:00",43.8876076355588,"Approved","OW428"
"2023-05-21 20:00",43.8863065289561,"Approved","OW428"
"2023-05-21 21:00",43.8865054223534,"Approved","OW428"
"2023-05-21 22:00",43.8885043157506,"Approved","OW428"
"2023-05-21 23:00",43.8892032091479,"Approved","OW428"
"2023-05-22 00:00",43.8896021025452,"Approved","OW428"
"2023-05-22 01:00",43.8895009959425,"Approved","OW428"
"2023-05-22 02:00",43.8900998893397,"Approved","OW428"
"2023-05-22 03:00",43.889998782737,"Approved","OW428"
"2023-05-22 04:00",43.8880976761343,"Approved","OW428"
"2023-05-22 05:00",43.8865965695315,"Approved","OW428"
"2023-05-22 06:00",43.8853954629288,"Approved","OW428"
"2023-05-22 07:00",43.8851943563261,"Approved","OW428"
"2023-05-22 08:00",43.8874932497233,"Approved","OW428"
"2023-05-22 09:00",43.8890921431206,"Approved","OW428"
"2023-05-22 10:00",43.8912910365179,"Approved","OW428"
"2023-05-22 11:00",43.8946899299152,"Approved","OW428"
"2023-05-22 12:00",43.8976888233124,"Approved","OW428"
"2023-05-22 13:00",43.8987877167097,"Approved","OW428"
"2023-05-22 14:00",43.901386610107,"Approved","OW428"
"2023-05-22 15:00",43.9016855035042,"Approved","OW428"
"2023-05-22 16:00",43.8999843969015,"Approved","OW428"
"2023-05-22 17:00",43.8985832902988,"Approved","OW428"
"2023-05-22 18:00",43.896782183696,"Approved","OW428"
"2023-05-22 19:00",43.8941810770933,"Approved","OW428"
"2023-05-22 20:00",43.8921799704906,"Approved","OW428"
"2023-05-22 21:00",43.8915788638879,"Approved","OW428"
"2023-05-22 22:00",43.8910777572851,"Approved","OW428"
"2023-05-22 23:00",43.8926766506824,"Approved","OW428"
"2023-05-23 00:00",43.8934755440797,"Approved","OW428"
"2023-05-23 01:00",43.8943744374769,"Approved","OW428"
"2023-05-23 02:00",43.8928733308742,"Approved","OW428"
"2023-05-23 03:00",43.8918722242715,"Approved","OW428"
"2023-05-23 04:00",43.8912711176688,"Approved","OW428"
"2023-05-23 05:00",43.891070011066,"Approved","OW428"
"2023-05-23 06:00",43.8909689044633,"Approved","OW428"
"2023-05-23 07:00",43.8891677978606,"Approved","OW428"
"2023-05-23 08:00",43.8890666912578,"Approved","OW428"
"2023-05-23 09:00",43.8896655846551,"Approved","OW428"
"2023-05-23 10:00",43.8933644780524,"Approved","OW428"
"2023-05-23 11:00",43.8949633714496,"Approved","OW428"
"2023-05-23 12:00",43.8985622648469,"Approved","OW428"
"2023-05-23 13:00",43.9009611582442,"Approved","OW428"
"2023-05-23 14:00",43.9035600516415,"Approved","OW428"
"2023-05-23 15:00",43.9034589450387,"Approved","OW428"
"2023-05-23 16:00",43.903257838436,"Approved","OW428"
"2023-05-23 17:00",43.9014567318333,"Approved","OW428"
"2023-05-23 18:00",43.8990556252305,"Approved","OW428"
"2023-05-23 19:00",43.8964545186278,"Approved","OW428"